THY8ZN LTFM-LTAJ

Flight info

Callsign THY8ZN
Flight time 1h 14m
Altitude 35000
Route VICEN UT57 VEVUD UT341 BAG UL605 RATSI UA17 ASBOM
Aircraft B738/M-SDE2E3FGHIRWXY/LB1

Departure

Time 2026-05-07 18:31
Airport İstanbul Airport (LTFM)

Arrival

Time 2026-05-07 19:45
Airport Gaziantep Oğuzeli International Airport (LTAJ)
Time Latitude Longitude Altitude Speed Heading
2026-05-07 17:49 41.26029 28.74968 333 ft 0 kts 251°
2026-05-07 18:21 41.26033 28.74982 333 ft 2 kts 251°
2026-05-07 18:22 41.26038 28.75001 333 ft 2 kts 251°
2026-05-07 18:22 41.26041 28.75013 333 ft 2 kts 251°
2026-05-07 18:22 41.26046 28.75039 333 ft 2 kts 272°
2026-05-07 18:22 41.26043 28.75059 333 ft 2 kts 292°
2026-05-07 18:23 41.26035 28.75076 333 ft 2 kts 312°
2026-05-07 18:23 41.26024 28.75089 333 ft 2 kts 333°
2026-05-07 18:23 41.26017 28.75092 333 ft 1 kts 344°
2026-05-07 18:23 41.26013 28.75094 333 ft 0 kts 341°
2026-05-07 18:27 41.26020 28.75091 333 ft 2 kts 341°
2026-05-07 18:27 41.26047 28.75079 333 ft 5 kts 341°
2026-05-07 18:28 41.26101 28.75053 333 ft 10 kts 341°
2026-05-07 18:28 41.26184 28.75017 333 ft 12 kts 351°
2026-05-07 18:28 41.26234 28.75085 333 ft 11 kts 83°
2026-05-07 18:28 41.26236 28.75185 333 ft 10 kts 89°
2026-05-07 18:29 41.26236 28.75276 333 ft 9 kts 90°
2026-05-07 18:29 41.26237 28.75364 333 ft 10 kts 89°
2026-05-07 18:29 41.26239 28.75461 333 ft 10 kts 88°
2026-05-07 18:29 41.26241 28.75550 333 ft 9 kts 89°
2026-05-07 18:30 41.26245 28.75637 333 ft 10 kts 70°
2026-05-07 18:30 41.26317 28.75667 333 ft 8 kts 359°
2026-05-07 18:30 41.26429 28.75665 333 ft 40 kts 359°
2026-05-07 18:30 41.26958 28.75654 333 ft 110 kts 358°
2026-05-07 18:31 41.27925 28.75633 339 ft 165 kts 358°
2026-05-07 18:31 41.29119 28.75640 873 ft 175 kts 358°
2026-05-07 18:31 41.30317 28.75959 1550 ft 184 kts 21°
2026-05-07 18:31 41.31390 28.76928 2224 ft 189 kts 39°
2026-05-07 18:32 41.32410 28.78102 2671 ft 202 kts 33°
2026-05-07 18:32 41.33628 28.79122 3152 ft 212 kts 26°
2026-05-07 18:32 41.34972 28.80084 3555 ft 230 kts 25°
2026-05-07 18:32 41.36417 28.81145 4055 ft 246 kts 30°
2026-05-07 18:33 41.37720 28.82694 4605 ft 263 kts 54°
2026-05-07 18:33 41.38408 28.85022 5181 ft 278 kts 83°
2026-05-07 18:33 41.38424 28.87598 5889 ft 285 kts 99°
2026-05-07 18:33 41.37762 28.90043 6635 ft 288 kts 120°
2026-05-07 18:34 41.36687 28.92306 7428 ft 291 kts 124°
2026-05-07 18:34 41.35542 28.94520 8240 ft 293 kts 124°
2026-05-07 18:34 41.34408 28.96777 8990 ft 296 kts 123°
2026-05-07 18:34 41.33307 28.99059 9762 ft 299 kts 122°
2026-05-07 18:35 41.32193 29.01427 10443 ft 304 kts 121°
2026-05-07 18:35 41.31051 29.03879 10845 ft 320 kts 121°
2026-05-07 18:35 41.29859 29.06445 11238 ft 335 kts 121°
2026-05-07 18:35 41.28605 29.09139 11617 ft 351 kts 121°
2026-05-07 18:36 41.27294 29.11949 11991 ft 366 kts 121°
2026-05-07 18:36 41.25932 29.14860 12350 ft 380 kts 121°
2026-05-07 18:36 41.24520 29.17874 12926 ft 387 kts 121°
2026-05-07 18:36 41.23098 29.20906 13555 ft 392 kts 121°
2026-05-07 18:37 41.21655 29.23980 14172 ft 397 kts 121°
2026-05-07 18:37 41.20200 29.27076 14823 ft 401 kts 121°
2026-05-07 18:37 41.18705 29.30255 15434 ft 405 kts 121°
2026-05-07 18:37 41.17220 29.33411 16020 ft 410 kts 120°
2026-05-07 18:38 41.15703 29.36631 16611 ft 414 kts 121°
2026-05-07 18:38 41.14164 29.39895 17182 ft 420 kts 120°
2026-05-07 18:38 41.12610 29.43186 17797 ft 423 kts 120°
2026-05-07 18:38 41.11042 29.46504 18311 ft 429 kts 120°
2026-05-07 18:39 41.09474 29.49817 18898 ft 432 kts 120°
2026-05-07 18:39 41.07869 29.53205 19436 ft 437 kts 120°
2026-05-07 18:39 41.06255 29.56609 19950 ft 441 kts 120°
2026-05-07 18:39 41.04596 29.60104 20485 ft 445 kts 120°
2026-05-07 18:40 41.02956 29.63553 20981 ft 449 kts 120°
2026-05-07 18:40 41.01299 29.67036 21481 ft 453 kts 120°
2026-05-07 18:40 40.99601 29.70600 21932 ft 458 kts 120°
2026-05-07 18:40 40.97915 29.74132 22438 ft 461 kts 120°
2026-05-07 18:41 40.96184 29.77758 22864 ft 465 kts 120°
2026-05-07 18:41 40.94465 29.81356 23394 ft 467 kts 120°
2026-05-07 18:41 40.92735 29.84970 23803 ft 472 kts 120°
2026-05-07 18:41 40.90969 29.88656 24298 ft 475 kts 120°
2026-05-07 18:42 40.89203 29.92340 24703 ft 479 kts 120°
2026-05-07 18:42 40.87431 29.96031 25173 ft 481 kts 120°
2026-05-07 18:42 40.85676 29.99682 25535 ft 486 kts 120°
2026-05-07 18:42 40.83870 30.03436 26009 ft 488 kts 120°
2026-05-07 18:43 40.82037 30.07238 26427 ft 491 kts 120°
2026-05-07 18:43 40.80216 30.11011 26789 ft 495 kts 120°
2026-05-07 18:43 40.78360 30.14851 27227 ft 497 kts 120°
2026-05-07 18:43 40.76495 30.18707 27571 ft 501 kts 120°
2026-05-07 18:44 40.74608 30.22601 27946 ft 504 kts 120°
2026-05-07 18:44 40.72742 30.26448 28420 ft 504 kts 120°
2026-05-07 18:44 40.70862 30.30316 29037 ft 501 kts 120°
2026-05-07 18:44 40.68980 30.34183 29514 ft 501 kts 120°
2026-05-07 18:45 40.67123 30.37993 29973 ft 500 kts 120°
2026-05-07 18:45 40.65243 30.41849 30429 ft 500 kts 120°
2026-05-07 18:45 40.63354 30.45718 30913 ft 499 kts 120°
2026-05-07 18:45 40.61475 30.49564 31431 ft 497 kts 120°
2026-05-07 18:46 40.59599 30.53397 31861 ft 497 kts 120°
2026-05-07 18:46 40.57751 30.57169 32305 ft 496 kts 120°
2026-05-07 18:46 40.55882 30.60982 32700 ft 495 kts 120°
2026-05-07 18:46 40.54013 30.64787 33086 ft 495 kts 120°
2026-05-07 18:47 40.52141 30.68636 33475 ft 494 kts 119°
2026-05-07 18:47 40.50448 30.72548 33843 ft 491 kts 114°
2026-05-07 18:47 40.49019 30.76611 34194 ft 488 kts 109°
2026-05-07 18:47 40.47815 30.80765 34527 ft 486 kts 105°
2026-05-07 18:48 40.46751 30.84942 34817 ft 484 kts 104°
2026-05-07 18:48 40.45741 30.89225 35084 ft 483 kts 103°
2026-05-07 18:48 40.44765 30.93502 35180 ft 486 kts 102°
2026-05-07 18:49 40.42843 31.01966 35186 ft 484 kts 103°
2026-05-07 18:49 40.40891 31.10370 35189 ft 483 kts 103°
2026-05-07 18:50 40.38890 31.18809 35178 ft 483 kts 103°
2026-05-07 18:50 40.37107 31.27077 35185 ft 481 kts 98°
2026-05-07 18:51 40.35698 31.35635 35187 ft 478 kts 97°
2026-05-07 18:51 40.34398 31.44180 35194 ft 480 kts 96°
2026-05-07 18:52 40.33071 31.52724 35201 ft 480 kts 97°
2026-05-07 18:52 40.31700 31.61265 35200 ft 481 kts 97°
2026-05-07 18:53 40.30296 31.69825 35197 ft 480 kts 98°
2026-05-07 18:53 40.28883 31.78353 35198 ft 482 kts 98°
2026-05-07 18:54 40.27450 31.86922 35192 ft 479 kts 98°
2026-05-07 18:54 40.25974 31.95420 35191 ft 482 kts 100°
2026-05-07 18:55 40.24194 32.03862 35184 ft 484 kts 102°
2026-05-07 18:55 40.22306 32.12240 35179 ft 483 kts 102°
2026-05-07 18:56 40.20402 32.20690 35178 ft 484 kts 102°
2026-05-07 18:56 40.18528 32.29094 35174 ft 484 kts 102°
2026-05-07 18:57 40.16653 32.37559 35180 ft 483 kts 102°
2026-05-07 18:57 40.14795 32.45963 35179 ft 483 kts 101°
2026-05-07 18:58 40.12925 32.54410 35181 ft 483 kts 101°
2026-05-07 18:58 40.11054 32.62830 35184 ft 483 kts 102°
2026-05-07 18:59 40.09181 32.71219 35181 ft 481 kts 102°
2026-05-07 18:59 40.07034 32.79525 35183 ft 486 kts 111°
2026-05-07 19:00 40.03471 32.87099 35186 ft 491 kts 124°
2026-05-07 19:00 39.99275 32.93898 35189 ft 492 kts 128°
2026-05-07 19:01 39.94841 33.00701 35193 ft 492 kts 128°
2026-05-07 19:01 39.90403 33.07533 35194 ft 493 kts 128°
2026-05-07 19:02 39.86147 33.14162 35196 ft 493 kts 127°
2026-05-07 19:02 39.81745 33.21073 35194 ft 494 kts 127°
2026-05-07 19:03 39.77381 33.27942 35193 ft 493 kts 127°
2026-05-07 19:03 39.73026 33.34792 35191 ft 494 kts 127°
2026-05-07 19:04 39.68636 33.41685 35188 ft 495 kts 127°
2026-05-07 19:04 39.64261 33.48540 35188 ft 493 kts 127°
2026-05-07 19:05 39.59901 33.55354 35192 ft 493 kts 127°
2026-05-07 19:05 39.55520 33.62226 35191 ft 494 kts 126°
2026-05-07 19:06 39.51208 33.69165 35191 ft 494 kts 127°
2026-05-07 19:06 39.44782 33.79554 35190 ft 493 kts 127°
2026-05-07 19:07 39.40405 33.86432 35190 ft 495 kts 128°
2026-05-07 19:07 39.35988 33.93241 35197 ft 494 kts 128°
2026-05-07 19:08 39.31577 34.00020 35203 ft 494 kts 128°
2026-05-07 19:08 39.27183 34.06809 35206 ft 495 kts 128°
2026-05-07 19:09 39.22796 34.13602 35200 ft 493 kts 128°
2026-05-07 19:09 39.18396 34.20405 35188 ft 494 kts 127°
2026-05-07 19:10 39.14102 34.27155 35186 ft 492 kts 124°
2026-05-07 19:10 39.10274 34.34536 35200 ft 491 kts 119°
2026-05-07 19:11 39.06232 34.41613 35195 ft 495 kts 128°
2026-05-07 19:11 39.01709 34.48322 35196 ft 493 kts 129°
2026-05-07 19:12 38.97198 34.54932 35191 ft 493 kts 129°
2026-05-07 19:12 38.92717 34.61615 35193 ft 493 kts 128°
2026-05-07 19:13 38.88257 34.68367 35190 ft 494 kts 128°
2026-05-07 19:13 38.83927 34.74971 35194 ft 494 kts 128°
2026-05-07 19:14 38.79504 34.81725 35202 ft 495 kts 128°
2026-05-07 19:14 38.75038 34.88538 35197 ft 494 kts 128°
2026-05-07 19:15 38.70612 34.95272 35210 ft 495 kts 129°
2026-05-07 19:15 38.66174 35.02012 35221 ft 495 kts 128°
2026-05-07 19:16 38.61758 35.08700 35226 ft 494 kts 129°
2026-05-07 19:16 38.57361 35.15348 35232 ft 493 kts 129°
2026-05-07 19:17 38.52911 35.22063 35223 ft 493 kts 129°
2026-05-07 19:17 38.48459 35.28693 35232 ft 493 kts 129°
2026-05-07 19:18 38.43909 35.35334 35231 ft 495 kts 130°
2026-05-07 19:18 38.39373 35.41916 35227 ft 493 kts 130°
2026-05-07 19:19 38.34851 35.48478 35223 ft 494 kts 129°
2026-05-07 19:19 38.30339 35.55026 35223 ft 494 kts 130°
2026-05-07 19:20 38.25801 35.61604 35229 ft 493 kts 130°
2026-05-07 19:20 38.21829 35.67350 35227 ft 494 kts 130°
2026-05-07 19:21 38.17260 35.73949 35226 ft 494 kts 130°
2026-05-07 19:21 38.12704 35.80519 35219 ft 494 kts 130°
2026-05-07 19:22 38.10444 35.83772 34931 ft 494 kts 130°
2026-05-07 19:22 38.08144 35.87078 34220 ft 499 kts 130°
2026-05-07 19:22 38.05869 35.90345 33600 ft 497 kts 130°
2026-05-07 19:22 38.03611 35.93585 33178 ft 492 kts 130°
2026-05-07 19:23 38.01345 35.96832 32703 ft 487 kts 130°
2026-05-07 19:23 37.99130 36.00005 32180 ft 485 kts 130°
2026-05-07 19:23 37.96886 36.03213 31672 ft 481 kts 130°
2026-05-07 19:23 37.94700 36.06337 31215 ft 477 kts 130°
2026-05-07 19:24 37.92524 36.09443 30750 ft 474 kts 130°
2026-05-07 19:24 37.90331 36.12571 30243 ft 471 kts 130°
2026-05-07 19:24 37.88164 36.15659 29671 ft 469 kts 130°
2026-05-07 19:24 37.85985 36.18762 29096 ft 467 kts 130°
2026-05-07 19:25 37.83860 36.21784 28543 ft 464 kts 130°
2026-05-07 19:25 37.81715 36.24836 28001 ft 461 kts 130°
2026-05-07 19:25 37.79597 36.27851 27481 ft 457 kts 130°
2026-05-07 19:25 37.77512 36.30821 26983 ft 453 kts 130°
2026-05-07 19:26 37.75446 36.33764 26506 ft 448 kts 130°
2026-05-07 19:26 37.73398 36.36679 26037 ft 443 kts 130°
2026-05-07 19:26 37.71353 36.39585 25565 ft 439 kts 131°
2026-05-07 19:26 37.69332 36.42451 25102 ft 434 kts 131°
2026-05-07 19:27 37.67357 36.45251 24627 ft 430 kts 131°
2026-05-07 19:27 37.65370 36.48068 24152 ft 426 kts 131°
2026-05-07 19:27 37.63403 36.50853 23678 ft 422 kts 131°
2026-05-07 19:27 37.61472 36.53585 23203 ft 418 kts 131°
2026-05-07 19:28 37.59567 36.56277 22737 ft 414 kts 131°
2026-05-07 19:28 37.57643 36.58993 22261 ft 410 kts 131°
2026-05-07 19:28 37.55755 36.61655 21791 ft 406 kts 131°
2026-05-07 19:28 37.53897 36.64274 21330 ft 402 kts 131°
2026-05-07 19:29 37.52029 36.66905 20860 ft 399 kts 131°
2026-05-07 19:29 37.50200 36.69479 20401 ft 395 kts 131°
2026-05-07 19:29 37.48393 36.72036 19940 ft 391 kts 131°
2026-05-07 19:29 37.46600 36.74596 19486 ft 387 kts 131°
2026-05-07 19:30 37.44820 36.77146 19024 ft 384 kts 131°
2026-05-07 19:30 37.43071 36.79653 18567 ft 380 kts 130°
2026-05-07 19:30 37.41356 36.82112 18118 ft 376 kts 130°
2026-05-07 19:30 37.39638 36.84569 17661 ft 373 kts 130°
2026-05-07 19:31 37.37944 36.86988 17215 ft 370 kts 130°
2026-05-07 19:31 37.36240 36.89415 16744 ft 366 kts 130°
2026-05-07 19:31 37.34575 36.91786 16288 ft 363 kts 130°
2026-05-07 19:31 37.32900 36.94168 15844 ft 360 kts 130°
2026-05-07 19:32 37.31252 36.96510 15389 ft 357 kts 130°
2026-05-07 19:32 37.29620 36.98826 14948 ft 355 kts 130°
2026-05-07 19:32 37.28000 37.01124 14501 ft 352 kts 130°
2026-05-07 19:32 37.26374 37.03429 14045 ft 349 kts 130°
2026-05-07 19:33 37.24787 37.05696 13609 ft 347 kts 129°
2026-05-07 19:33 37.23215 37.07988 13166 ft 344 kts 129°
2026-05-07 19:33 37.21672 37.10262 12727 ft 342 kts 128°
2026-05-07 19:33 37.20151 37.12505 12292 ft 340 kts 128°
2026-05-07 19:34 37.18613 37.14767 11846 ft 338 kts 128°
2026-05-07 19:34 37.17103 37.16983 11418 ft 336 kts 128°
2026-05-07 19:34 37.15589 37.19199 10981 ft 334 kts 128°
2026-05-07 19:34 37.14083 37.21399 10539 ft 332 kts 128°
2026-05-07 19:35 37.12595 37.23568 10332 ft 322 kts 128°
2026-05-07 19:35 37.11151 37.25635 10227 ft 309 kts 129°
2026-05-07 19:35 37.09741 37.27566 10132 ft 298 kts 130°
2026-05-07 19:35 37.08352 37.29430 10008 ft 287 kts 130°
2026-05-07 19:36 37.06994 37.31252 9670 ft 287 kts 130°
2026-05-07 19:36 37.05632 37.33091 9303 ft 287 kts 130°
2026-05-07 19:36 37.04287 37.34913 8948 ft 286 kts 130°
2026-05-07 19:36 37.02936 37.36744 8584 ft 286 kts 130°
2026-05-07 19:37 37.01588 37.38571 8220 ft 285 kts 130°
2026-05-07 19:37 37.00259 37.40374 7862 ft 284 kts 130°
2026-05-07 19:37 36.98912 37.42197 7491 ft 283 kts 130°
2026-05-07 19:37 36.97584 37.43995 7125 ft 282 kts 130°
2026-05-07 19:38 36.96278 37.45812 6763 ft 281 kts 129°
2026-05-07 19:38 36.94989 37.47652 6413 ft 280 kts 131°
2026-05-07 19:38 36.93632 37.49379 6062 ft 277 kts 127°
2026-05-07 19:38 36.92625 37.51379 5722 ft 273 kts 117°
2026-05-07 19:39 36.91623 37.53401 5476 ft 268 kts 125°
2026-05-07 19:39 36.90478 37.55151 5392 ft 257 kts 128°
2026-05-07 19:39 36.89375 37.56857 5303 ft 246 kts 126°
2026-05-07 19:39 36.88355 37.58528 5231 ft 234 kts 125°
2026-05-07 19:40 36.87401 37.60110 5136 ft 223 kts 125°
2026-05-07 19:40 36.86534 37.61659 5035 ft 212 kts 114°
2026-05-07 19:40 36.86168 37.63367 4924 ft 197 kts 88°
2026-05-07 19:40 36.86456 37.64983 4586 ft 196 kts 60°
2026-05-07 19:41 36.87353 37.66298 4222 ft 195 kts 39°
2026-05-07 19:41 36.88456 37.67199 3940 ft 187 kts 18°
2026-05-07 19:41 36.89721 37.67329 3953 ft 182 kts 345°
2026-05-07 19:41 36.90760 37.66473 3954 ft 182 kts 303°
2026-05-07 19:42 36.91162 37.65015 3956 ft 175 kts 279°
2026-05-07 19:42 36.91370 37.63543 3988 ft 169 kts 285°
2026-05-07 19:42 36.91700 37.62111 3955 ft 172 kts 288°
2026-05-07 19:42 36.92027 37.60683 3956 ft 171 kts 286°
2026-05-07 19:43 36.92337 37.59231 3925 ft 168 kts 286°
2026-05-07 19:43 36.92636 37.57850 3683 ft 165 kts 286°
2026-05-07 19:43 36.92935 37.56482 3473 ft 160 kts 285°
2026-05-07 19:43 36.93228 37.55129 3259 ft 162 kts 285°
2026-05-07 19:44 36.93517 37.53780 3025 ft 161 kts 285°
2026-05-07 19:44 36.93811 37.52428 2829 ft 163 kts 286°
2026-05-07 19:44 36.94109 37.51060 2611 ft 163 kts 286°
2026-05-07 19:44 36.94408 37.49697 2391 ft 162 kts 285°
2026-05-07 19:45 36.94693 37.48386 2320 ft 140 kts 284°
2026-05-07 19:45 36.94887 37.47482 2320 ft 76 kts 285°
2026-05-07 19:45 36.94987 37.47012 2320 ft 38 kts 285°
2026-05-07 19:45 36.95010 37.46777 2320 ft 20 kts 254°
2026-05-07 19:46 36.94973 37.46615 2320 ft 19 kts 253°
2026-05-07 19:46 36.94909 37.46611 2320 ft 14 kts 101°
2026-05-07 19:46 36.94886 37.46727 2320 ft 13 kts 105°
2026-05-07 19:46 36.94862 37.46838 2320 ft 13 kts 105°
2026-05-07 19:47 36.94838 37.46951 2320 ft 13 kts 105°
2026-05-07 19:47 36.94813 37.47066 2320 ft 13 kts 105°
2026-05-07 19:47 36.94788 37.47182 2320 ft 14 kts 105°
2026-05-07 19:47 36.94761 37.47304 2320 ft 16 kts 105°
2026-05-07 19:48 36.94739 37.47410 2320 ft 7 kts 107°
2026-05-07 19:48 36.94700 37.47430 2320 ft 6 kts 195°
2026-05-07 19:48 36.94660 37.47436 2320 ft 5 kts 131°
2026-05-07 19:48 36.94645 37.47490 2320 ft 7 kts 106°
2026-05-07 19:49 36.94627 37.47565 2320 ft 10 kts 107°
2026-05-07 19:49 36.94608 37.47650 2320 ft 10 kts 105°
2026-05-07 19:49 36.94590 37.47731 2320 ft 9 kts 105°
2026-05-07 19:49 36.94572 37.47812 2320 ft 10 kts 105°
2026-05-07 19:50 36.94555 37.47893 2320 ft 9 kts 105°
2026-05-07 19:50 36.94535 37.47961 2320 ft 7 kts 141°
2026-05-07 19:50 36.94494 37.47959 2320 ft 4 kts 195°
2026-05-07 19:50 36.94484 37.47956 2320 ft 0 kts 196°
2026-05-07 19:51 36.94484 37.47955 2320 ft 0 kts 195°
2026-05-07 19:51 36.94482 37.47955 2320 ft 0 kts 195°